Flag for U.S.A. Weather past 2 weeks in Fayetteville, North Carolina, U.S.A.

Now
72 °F

Overcast.


Feels Like: 71 °F
Forecast: 71 / 86 °F
Wind: 7 mph from West

Location: Fayetteville Regional Airport

Current Time: Jul 3, 2015 at 4:32:38 AM

Latest Report: Jul 3, 2015 at 3:53 AM


Visibility: 10 mi

Pressure: 29.90 "Hg

Humidity: 84%

Dew point: 67 °F

Location of FayettevilleLocation

Historic Weather in Fayetteville — Graph

°F

Fayetteville temperature yesterday

Maximum temperature yesterday: 90 °F (at 3:53 PM)
Minimum temperature yesterday: 73 °F (at 11:53 PM)
Average temperature yesterday: 80 °F

Past Weeks' High & Low Weather Summary

 TemperatureHumidityPressure
High96 °F (Jun 22, 3:53 PM)97% (Jun 19, 2:53 AM)30.07 "Hg (Jun 19, 2:53 AM)
Low66 °F (Jun 29, 3:53 AM)33% (Jun 28, 5:53 PM)29.74 "Hg (Jun 27, 5:53 PM)
Average81 °F70%29.94 "Hg
* Reported Jun 18 2:53 AM — Jul 3 2:53 AM, Fayetteville, Weather by CustomWeather, © 2015

Note: Actual official high and low records may vary slightly from our data, if they occured in-between our weather recording intervals... More about our weather records

Advertising

Fayetteville weather history for previous 24 hours

 ConditionsComfort  
Time TempWeatherWind HumidityBarometerVisibility
2:53 AM
Fri, Jul 3
72 °FOvercast.13 mph84%29.88 "Hg10 mi
1:53 AM72 °FPassing clouds.9 mph87%29.89 "Hg10 mi
12:53 AM72 °FPassing clouds.12 mph87%29.90 "Hg10 mi
11:53 PM
Thu, Jul 2
73 °FClear.12 mph84%29.92 "Hg10 mi
10:53 PM74 °FClear.13 mph82%29.93 "Hg10 mi
9:53 PM76 °FClear.12 mph77%29.92 "Hg10 mi
8:53 PM77 °FSunny.16 mph77%29.85 "Hg10 mi
7:53 PM78 °FSunny.13 mph74%29.86 "Hg10 mi
6:53 PM82 °FPassing clouds.12 mph67%29.84 "Hg10 mi
5:53 PM84 °FCloudy.14 mph63%29.83 "Hg10 mi
4:53 PM90 °FPassing clouds.16 mph54%29.83 "Hg10 mi
3:53 PM90 °FSunny.17 mph47%29.86 "Hg10 mi
2:53 PM88 °FBroken clouds.12 mph54%29.88 "Hg10 mi
1:53 PM88 °FSunny.16 mph55%29.90 "Hg10 mi
12:53 PM85 °FSunny.15 mph57%29.92 "Hg10 mi
11:53 AM83 °FSunny.9 mph61%29.93 "Hg8 mi
10:53 AM80 °FSunny.12 mph67%29.93 "Hg8 mi
9:53 AM78 °FSunny.10 mph69%29.93 "Hg8 mi
8:53 AM76 °FScattered clouds.8 mph77%29.93 "Hg7 mi
7:53 AM75 °FSunny.8 mph82%29.93 "Hg7 mi
6:53 AM75 °FPassing clouds.7 mph85%29.92 "Hg7 mi
5:53 AM75 °FPassing clouds.8 mph88%29.91 "Hg7 mi
4:53 AM76 °FOvercast.8 mph85%29.89 "Hg8 mi
Weather by CustomWeather, © 2015

See weather overviewHow to use our weather pages